Location: Kampong Paya Jaras Dalam
(3.1833°N, 101.5500°E)
Time: 04:41:42
(UTC+00:00)

OAO 1 Rocket - Pass Details

Date: 15 May 2026
Orbit: 736 x 748 km, 35.0° (Epoch: 6 June)

Event Time Altitude Azimuth Distance (km) Brightness Sun altitude
Rises 12:19:27 0° 228° (SW) 3,176 8.1 -15.3°
Reaches altitude 10° 12:21:55 10° 225° (SW) 2,250 7.2 -15.8°
Maximum altitude 12:27:12 67° 142° (SE) 798 4.3 -17.1°
Enters shadow 12:30:56 19° 63° (ENE) 1,699 5.9 -17.9°
